RH
82 83 79 80 81 81 80 77 76 78 80 83 85 85 82 82 83 84 85 85 84 83 83 85 86 85 85 86 87 86 85 85 83 80 77 66 59 57 59 64 68 70 71 72 73 74 73 72 72 72 72 72 72 73 77 79 79 78 77 76 74 72 71 77 81 83 87 85 85 85 86 90 90 89 92 93 92 89 86 87 87 87 85 79 73 67 63 66 68 71 78 85 87 87 86 89 92 93 90 93 96 98 98
82 82 83 86 87 86 81 79 78 79 82 85 87 87 84 84 85 86 88 87 86 85 83 85 85 86 88 88 89 89 88 88 84 78 73 68 65 64 65 66 67 68 70 72 72 71 69 68 69 69 70 71 74 76 80 79 78 76 75 73 70 69 72 81 82 81 85 85 84 84 84 90 90 88 90 94 93 90 85 87 88 89 89 89 86 82 76 71 68 67 65 77 84 86 85 89 92 94 94 94 93 94 98
80 82 86 89 89 86 82 82 81 80 81 85 86 85 84 84 85 86 88 86 86 87 87 87 85 84 86 90 90 89 85 80 75 72 71 69 68 67 67 66 67 69 72 71 69 67 66 67 67 69 71 74 77 78 78 76 74 72 70 66 64 65 73 81 82 80 80 87 86 83 81 86 89 90 89 91 91 89 84 87 89 91 92 93 92 89 86 83 80 78 77 80 83 85 84 90 95 97 97 91 87 86 93
79 80 85 89 89 88 86 86 85 83 83 88 89 88 86 86 84 84 87 86 86 88 90 90 89 88 86 91 91 86 79 74 71 71 71 70 69 68 66 66 67 70 71 68 66 66 68 69 71 72 75 77 77 76 74 71 69 66 64 59 57 61 72 75 79 81 82 87 85 81 79 82 86 89 90 90 90 88 86 88 91 93 94 97 96 94 91 92 92 91 86 84 83 84 90 93 96 96 93 89 88 90 95
74 77 81 85 88 89 89 88 85 83 84 87 88 88 86 86 86 88 90 88 88 88 89 89 87 85 85 86 84 80 75 73 72 71 71 71 69 67 65 65 68 70 69 65 64 66 71 73 74 75 77 76 74 72 69 65 62 59 55 52 54 60 71 78 83 84 85 85 84 82 78 78 82 86 88 86 85 85 88 90 91 93 96 99 99 97 94 97 98 98 95 90 87 86 90 94 93 91 89 88 90 92 93
70 73 78 84 87 89 90 89 87 86 87 88 87 86 86 86 87 88 89 88 87 84 82 81 80 79 79 78 77 76 75 74 73 72 72 70 67 65 63 66 68 68 65 62 62 65 70 73 75 76 76 75 74 71 67 62 57 51 46 47 54 64 76 79 80 81 84 85 85 82 78 79 79 81 85 83 84 87 92 93 93 94 97 96 93 91 93 98 99 99 96 91 89 87 88 93 94 93 93 92 91 91 91
70 71 79 86 90 91 91 90 90 89 88 89 88 86 86 86 85 86 88 87 83 80 79 79 79 78 77 76 76 76 76 75 74 73 72 69 65 63 63 66 67 65 60 58 58 61 65 68 70 71 71 71 70 68 65 59 52 44 38 41 50 64 78 82 83 83 82 83 83 83 82 86 84 81 80 84 86 90 95 95 93 91 90 92 90 88 94 95 96 93 86 87 88 87 87 88 93 98 98 97 97 97 96
72 72 82 90 93 94 92 91 91 90 89 90 90 89 87 86 85 85 85 83 80 79 80 80 80 79 79 78 77 77 77 76 75 74 72 67 64 62 63 64 63 59 56 55 55 57 61 63 64 64 65 65 65 64 62 57 49 39 31 34 46 60 73 77 79 80 80 77 78 82 87 88 84 79 76 82 84 86 91 94 93 91 93 95 95 94 89 90 90 86 81 82 84 87 88 91 95 99 98 99 98 96 93
73 77 85 91 94 94 93 92 91 91 91 90 90 89 89 89 86 84 82 81 80 80 80 79 79 79 79 79 78 78 77 77 76 74 70 65 62 60 60 59 57 54 52 51 52 53 56 58 59 60 61 61 62 62 62 58 50 40 29 30 39 54 70 77 78 77 76 79 81 83 85 86 85 82 79 83 84 85 88 90 90 89 91 91 94 96 91 89 90 90 87 88 90 91 92 94 96 97 97 97 96 95 94
76 80 85 90 93 95 95 94 94 93 92 90 88 88 89 89 86 82 81 80 80 79 78 77 77 77 78 78 78 78 77 76 74 71 67 62 59 57 56 53 50 49 49 49 49 50 52 53 55 56 57 58 58 58 58 57 54 47 34 27 30 41 61 74 78 77 76 79 82 83 84 85 86 86 84 84 83 84 87 85 83 84 88 89 86 83 81 82 85 87 88 90 93 95 94 96 98 98 96 96 96 96 94
77 79 83 88 92 95 96 96 95 94 93 91 89 88 89 87 84 81 80 79 78 77 75 74 74 74 76 77 77 76 74 72 69 66 62 59 56 54 51 48 45 44 45 46 47 47 48 49 50 52 53 54 55 55 54 55 54 51 44 32 25 29 47 68 78 79 76 79 81 81 81 85 87 87 87 88 87 86 85 79 78 81 89 88 83 79 81 81 83 85 88 87 89 91 94 94 94 93 94 96 96 96 93
75 76 81 87 91 93 96 96 96 95 94 92 90 88 86 83 81 80 78 76 75 74 72 71 72 73 74 73 72 69 67 64 62 59 57 55 53 51 48 44 42 41 41 42 44 45 46 46 47 48 49 50 51 51 52 52 52 51 50 40 29 26 40 65 77 80 79 79 79 80 82 84 86 87 86 87 86 84 82 78 79 83 90 87 84 82 81 80 82 86 90 87 88 90 93 92 91 91 94 96 97 96 95
72 74 79 84 87 90 93 95 95 95 95 93 90 86 83 81 79 77 74 73 71 70 69 69 69 68 66 62 58 55 54 53 53 53 52 51 50 49 47 44 41 40 39 40 41 42 43 44 44 45 46 46 47 49 50 51 51 51 52 43 32 28 42 66 77 80 81 78 80 82 82 80 82 85 84 84 84 84 84 81 84 89 90 87 85 83 82 82 84 86 88 87 88 89 90 89 90 90 92 94 94 94 94
70 73 78 81 83 86 90 92 93 93 92 90 86 83 81 79 77 74 72 70 68 67 66 64 61 57 52 47 44 42 42 44 46 48 49 49 49 48 46 44 42 40 39 39 39 39 40 41 41 41 42 43 44 46 49 49 50 51 50 41 33 33 51 71 78 80 82 81 81 82 80 80 82 84 83 81 79 79 82 83 89 94 92 89 87 87 85 85 86 87 88 88 88 89 89 87 88 89 90 91 91 91 92
69 73 76 78 81 84 87 88 89 89 88 85 83 81 80 78 76 74 71 67 65 64 61 57 52 48 45 43 41 40 39 39 40 42 44 45 46 46 45 43 42 40 40 39 38 37 37 38 38 38 38 39 41 44 48 49 50 50 46 39 35 41 61 73 78 81 82 79 79 80 78 79 80 81 82 82 81 79 80 86 91 93 90 90 89 89 89 87 85 84 88 87 87 88 86 86 86 86 89 89 88 88 90
70 74 76 78 81 83 85 85 85 85 84 83 82 81 80 78 76 73 68 64 61 59 56 52 49 47 45 44 43 41 40 38 38 38 39 40 40 40 40 39 38 38 38 37 36 36 35 35 35 35 35 36 38 41 45 47 49 47 40 38 40 50 71 76 80 82 82 78 78 79 79 79 80 81 81 82 81 81 82 87 91 92 91 90 89 88 87 85 85 87 88 87 86 86 85 85 84 84 86 87 86 86 86
70 74 76 78 81 82 83 83 82 82 82 82 82 82 81 78 75 70 64 59 57 55 53 52 50 49 48 46 44 42 40 39 37 36 36 36 36 36 35 34 33 33 33 33 34 33 33 32 32 32 31 32 35 39 42 45 45 42 36 38 45 57 75 80 82 83 83 82 81 79 80 79 80 81 80 80 79 80 86 92 96 97 93 90 87 85 85 84 86 88 88 88 87 86 86 86 86 86 85 85 86 85 84
70 74 76 78 80 81 82 82 82 82 82 82 82 82 81 78 73 66 58 54 52 52 52 52 52 51 49 46 44 41 40 38 37 36 35 35 35 35 34 33 31 29 29 29 30 30 29 28 27 27 27 30 33 37 40 43 41 37 34 38 48 61 77 80 82 83 82 82 81 80 79 80 80 80 79 80 81 84 90 95 96 94 90 88 87 86 86 86 86 86 87 87 88 88 88 87 88 88 87 86 85 85 84
69 72 75 77 78 79 80 81 81 82 82 83 82 81 79 75 69 60 52 50 49 50 50 50 50 48 46 43 41 40 38 37 35 34 34 34 34 34 34 32 29 27 26 26 27 27 26 25 24 24 25 29 33 38 39 41 39 36 32 37 49 65 78 80 81 82 82 82 81 80 80 80 82 82 81 82 83 86 89 90 88 86 85 86 85 85 85 84 84 83 84 84 86 87 87 85 86 87 86 86 86 85 85
69 71 74 75 77 78 79 80 81 82 82 82 81 79 76 71 63 54 48 47 47 47 48 47 45 43 41 39 38 37 36 34 33 33 33 33 33 33 32 30 27 24 24 25 25 26 25 24 24 24 25 29 34 39 41 41 39 35 30 35 51 69 80 80 80 81 81 82 81 81 83 83 84 85 84 84 84 85 84 84 83 82 82 83 84 83 83 82 82 82 81 82 82 82 84 83 83 84 84 85 85 84 85
68 71 73 74 75 76 78 80 81 82 82 81 79 75 71 64 56 49 45 45 45 44 44 42 40 38 37 37 37 36 36 35 34 34 33 34 33 32 30 27 25 23 23 24 25 26 25 24 24 25 26 30 34 39 42 41 38 33 28 33 51 71 80 80 80 80 80 82 82 82 85 85 85 85 85 84 84 83 82 82 82 81 81 82 82 82 81 81 80 80 80 80 80 81 81 82 82 82 83 83 83 83 83
69 71 73 74 74 76 77 79 81 82 82 80 75 70 64 57 51 47 44 43 42 41 40 38 37 37 36 36 37 37 38 39 40 39 38 37 34 30 26 24 23 22 23 24 25 25 25 25 26 26 27 30 34 37 39 38 35 31 26 31 51 72 80 80 80 79 78 81 82 82 83 83 83 83 83 83 82 82 81 81 81 80 79 80 80 80 79 79 79 79 79 78 78 78 78 79 80 80 81 81 81 81 82
70 72 73 74 74 75 76 78 80 81 81 77 70 63 57 52 49 46 44 43 41 39 37 37 36 36 36 37 38 39 41 41 39 36 33 31 29 25 23 22 23 23 23 24 25 26 25 25 26 27 28 30 33 35 36 35 33 29 25 28 48 70 79 79 79 79 79 79 79 79 80 80 80 80 79 79 79 80 79 79 78 77 75 76 77 77 77 77 77 77 76 76 76 76 76 77 78 78 79 79 79 79 80
70 73 74 74 74 75 75 77 79 80 79 72 64 57 51 49 47 46 44 43 41 39 38 38 39 39 38 38 39 40 42 38 32 27 24 23 22 22 22 22 23 24 25 26 26 26 25 25 25 26 28 30 32 34 34 33 31 28 25 25 41 62 76 77 77 77 77 77 76 76 76 76 76 75 75 76 76 76 75 75 75 74 72 73 74 74 74 74 74 74 74 74 73 73 74 74 75 75 76 76 76 76 77
70 73 74 74 74 75 75 76 78 79 77 68 59 53 49 48 46 44 43 42 41 40 40 41 42 43 42 41 41 41 39 31 25 22 22 22 22 22 22 23 24 25 26 27 27 27 26 24 24 25 27 30 32 32 32 31 30 27 26 23 32 49 70 73 75 75 75 75 74 73 72 72 72 71 71 71 71 71 71 71 70 70 69 69 69 70 70 70 70 70 70 70 70 70 70 71 71 72 72 73 73 73 74
70 73 74 74 74 74 75 76 77 77 74 64 57 53 50 48 45 42 40 40 40 41 41 43 46 47 46 44 42 38 32 25 22 22 23 24 23 23 23 24 24 25 26 27 27 27 26 24 24 25 27 29 30 31 31 30 28 27 25 23 26 37 57 66 70 71 72 72 72 71 69 68 67 67 65 65 65 65 65 65 65 65 65 65 66 65 65 65 65 65 65 65 65 66 66 67 68 68 68 68 69 70 70
69 73 74 74 74 74 75 75 75 74 70 62 57 54 53 49 45 41 39 39 40 41 42 46 48 49 47 44 39 32 24 22 22 24 24 24 24 23 23 23 24 25 26 27 27 27 26 25 24 24 25 27 28 29 29 29 28 26 25 23 23 27 40 54 62 65 67 68 68 68 67 65 63 62 61 61 61 60 60 60 60 61 62 61 61 60 60 60 60 60 60 61 61 61 62 62 64 64 63 64 65 67 68
68 71 73 73 74 74 74 74 73 71 67 61 57 55 54 49 45 42 40 40 41 42 45 48 49 49 46 40 32 25 22 23 24 25 25 25 24 23 23 23 24 24 25 26 27 27 26 25 25 24 25 26 27 28 28 28 27 26 25 23 22 22 26 36 47 56 61 63 64 64 63 62 59 58 58 57 56 56 55 56 57 57 57 56 56 56 56 55 55 55 57 58 59 59 59 60 61 62 60 61 62 64 66
66 70 72 72 73 74 74 73 72 69 65 60 57 55 53 49 46 44 42 43 43 45 48 50 49 46 41 32 26 23 23 24 25 26 25 25 24 24 23 23 23 23 24 25 26 26 26 26 25 24 24 24 25 27 28 27 27 26 26 24 22 20 20 23 29 39 51 57 59 60 59 58 57 55 54 53 52 52 52 53 54 54 56 55 54 53 53 53 54 55 56 57 57 57 58 60 60 59 60 61 62 64 65
65 69 72 72 73 74 73 72 70 68 65 60 57 54 51 49 47 47 45 46 47 48 51 51 48 42 35 27 24 24 25 26 26 26 26 25 25 24 24 23 23 23 23 25 26 27 27 26 25 24 24 24 25 26 28 28 27 26 26 25 23 21 20 19 21 27 38 49 54 55 55 54 53 52 51 51 50 50 50 51 52 54 56 54 54 54 54 53 54 55 56 56 57 57 58 59 60 60 62 63 65 66 67
64 68 72 73 74 74 73 71 70 67 64 61 57 54 51 49 49 50 50 49 50 51 52 50 46 39 29 25 24 25 25 26 27 27 26 26 25 25 24 24 24 23 23 25 27 27 27 26 25 24 24 24 25 26 28 28 27 26 26 24 23 22 20 20 19 21 29 41 47 50 51 49 48 48 50 49 49 49 49 51 53 54 55 54 54 54 53 53 54 55 56 57 57 58 59 60 61 63 64 66 67 68 69
64 68 73 73 74 74 74 71 68 66 63 61 57 54 51 50 50 52 53 52 53 53 54 49 41 32 24 24 25 25 24 25 26 27 26 26 25 25 25 24 24 24 24 25 26 27 27 26 25 24 24 24 25 26 27 27 26 25 25 24 23 21 20 21 19 17 19 28 36 42 43 43 43 44 47 47 48 49 50 54 55 55 55 54 53 53 53 54 55 56 57 58 59 59 60 61 63 64 65 68 69 70 70
66 69 74 74 75 76 76 71 67 64 62 60 57 54 50 50 51 52 52 52 52 51 48 40 32 26 24 25 25 24 24 25 26 26 25 25 25 25 25 25 24 24 24 24 25 26 27 26 25 24 24 24 25 25 26 25 25 24 24 23 22 21 21 21 21 19 16 18 22 28 35 38 40 40 41 42 45 50 56 57 56 54 55 54 53 53 53 55 56 57 58 59 60 61 61 63 65 66 67 68 69 69 70
68 72 76 75 76 77 78 71 66 63 61 58 55 52 50 50 51 51 51 51 50 47 41 33 28 25 25 25 24 24 24 24 25 26 25 25 25 25 25 25 25 25 24 24 24 25 25 26 26 25 24 24 25 25 25 24 24 24 23 23 22 21 21 22 22 22 21 20 20 20 23 28 32 33 35 37 40 46 54 57 57 55 54 55 55 55 55 56 58 59 60 60 62 63 63 65 66 68 68 69 69 70 72
69 73 77 76 78 79 78 71 66 63 60 56 53 51 51 51 50 50 50 51 49 45 37 30 26 25 25 25 25 25 25 24 25 25 25 25 25 25 25 25 25 25 25 25 24 24 24 25 26 26 25 24 24 24 24 24 24 23 23 23 22 21 21 22 22 23 23 22 20 18 17 19 20 22 24 29 35 42 50 56 58 58 56 55 55 55 56 58 59 61 61 62 63 65 65 66 67 68 69 69 70 72 74
69 74 77 78 79 79 77 71 67 63 58 54 52 51 52 52 51 50 50 50 47 40 31 27 26 25 25 25 25 25 25 24 24 25 25 25 26 26 26 26 26 26 26 25 25 25 24 25 26 26 25 24 24 24 24 24 24 23 23 23 22 22 22 22 22 22 22 21 20 18 16 15 14 14 14 21 29 38 46 53 56 57 57 56 57 58 58 60 61 62 63 64 64 65 67 68 68 69 69 70 72 74 76
70 74 76 77 79 78 75 71 66 62 58 54 53 53 54 53 52 52 52 50 43 34 27 26 26 25 25 25 25 25 25 25 24 24 24 24 25 25 26 26 26 26 26 26 26 25 24 24 25 26 25 25 24 24 24 24 24 23 23 22 22 22 22 22 22 22 22 21 20 18 16 15 14 13 11 15 23 33 43 49 52 54 56 57 58 60 60 63 64 65 65 66 66 67 70 70 70 71 71 72 73 75 76
71 73 74 76 76 76 73 69 65 61 58 56 55 56 56 55 54 54 54 46 36 28 26 26 26 26 26 26 26 25 25 24 24 24 24 24 24 25 26 27 27 27 26 26 26 26 25 24 25 26 25 25 25 24 24 24 24 23 23 22 22 22 22 22 22 22 22 21 20 18 17 16 15 14 13 13 17 25 37 43 47 50 52 54 56 58 60 62 64 65 65 66 67 68 71 72 72 72 72 73 74 75 75
71 72 72 73 73 72 70 67 63 60 59 58 57 57 59 58 57 55 50 38 30 26 26 26 26 26 26 26 25 25 25 24 24 23 23 23 24 25 26 27 27 27 27 26 26 26 26 24 25 26 26 26 25 25 25 24 24 24 23 22 22 22 21 21 21 21 21 20 20 19 18 17 17 16 15 15 16 18 24 31 38 44 49 51 53 56 57 58 59 60 62 63 64 66 69 72 73 73 73 74 74 75 73
70 70 70 70 69 68 67 64 61 59 58 58 58 58 59 61 59 54 42 31 26 26 27 26 26 26 26 25 25 25 24 24 24 23 23 23 24 25 26 27 27 27 27 27 26 26 26 24 25 26 26 26 26 25 25 24 24 24 23 22 21 20 20 19 20 21 21 21 20 20 20 19 19 18 18 18 18 17 17 19 25 33 44 47 49 52 53 54 55 57 58 59 60 62 65 69 72 73 73 73 74 74 73
69 68 68 67 67 65 64 61 59 58 58 60 60 60 59 61 58 49 33 27 26 27 27 27 26 26 26 25 25 25 24 24 23 23 23 23 24 25 26 26 27 27 27 26 26 26 26 25 25 25 26 26 26 25 25 25 25 25 24 21 20 19 18 19 20 21 22 22 21 21 21 21 21 20 20 19 19 18 18 18 18 22 33 41 46 48 49 50 51 53 56 57 58 61 64 67 69 71 72 72 73 74 74
67 66 66 65 65 64 62 61 60 60 61 62 62 61 60 59 52 40 27 26 26 27 27 27 27 26 26 25 25 25 24 24 23 23 23 23 24 25 26 26 27 27 27 26 26 25 25 25 25 25 25 26 26 26 26 26 26 25 22 20 19 18 19 20 22 23 24 23 22 22 21 22 22 22 21 20 19 19 18 19 19 19 22 33 41 46 48 48 49 50 52 54 56 59 62 65 67 68 69 70 72 74 74
66 65 65 64 63 63 61 61 61 62 64 64 64 62 59 53 42 31 24 26 26 27 27 27 26 26 26 25 25 24 23 23 22 22 22 22 24 25 26 26 26 26 26 25 25 25 25 25 25 25 25 25 26 26 27 27 25 23 20 19 19 20 20 22 23 25 26 25 23 22 22 22 22 22 22 21 20 19 19 19 20 20 20 26 33 40 46 46 47 47 49 51 53 56 60 63 65 66 67 68 70 72 75
66 65 64 63 63 62 61 62 63 64 66 66 64 61 57 46 34 26 25 26 26 26 27 26 26 26 25 24 23 22 21 21 21 21 21 22 23 24 25 25 26 26 25 25 25 25 25 25 25 25 26 26 26 26 26 25 24 22 20 21 21 21 21 23 24 25 26 25 24 23 22 22 23 23 22 21 20 20 19 20 20 21 21 23 26 32 39 40 42 44 47 49 51 53 57 60 63 64 65 66 68 70 73
65 64 63 63 62 62 61 62 64 65 66 65 63 58 52 40 30 25 26 26 26 27 27 27 26 25 24 23 21 20 19 18 19 19 20 22 23 24 24 24 25 25 25 25 25 25 24 24 25 25 25 25 25 25 24 23 22 21 22 22 22 22 22 23 24 25 26 24 23 22 22 22 22 22 22 21 21 20 20 21 21 22 22 23 24 26 30 30 33 37 44 46 48 51 54 57 60 62 63 65 66 68 70
65 64 63 62 62 61 61 62 64 65 66 64 60 55 47 35 28 26 27 27 27 27 28 27 26 24 23 22 20 18 17 17 17 18 20 21 22 23 23 23 24 24 25 25 25 24 24 25 24 22 21 22 23 23 23 22 21 22 23 23 22 22 22 23 24 24 24 23 22 22 22 22 22 22 22 21 21 21 21 21 22 22 23 23 24 24 26 26 26 30 38 42 46 49 52 54 57 59 61 64 66 67 68
65 63 62 61 61 61 61 62 64 65 65 62 58 52 43 33 28 26 27 27 28 28 28 27 26 24 22 21 19 17 15 15 16 17 19 20 21 21 21 21 22 22 23 24 25 24 25 24 21 19 18 20 21 22 22 22 22 23 23 22 21 21 22 23 23 23 22 21 21 21 22 22 22 22 22 21 21 21 21 22 22 23 24 24 24 24 25 25 25 27 32 38 43 47 50 52 54 56 59 62 64 66 67
64 63 62 61 60 60 60 62 63 65 64 62 60 55 47 34 28 27 27 28 29 29 29 27 26 24 22 20 18 16 15 14 14 15 17 18 19 20 20 20 20 21 22 24 24 24 24 21 19 17 19 20 21 22 22 22 22 23 22 21 21 21 22 22 22 21 20 20 21 21 22 22 22 22 22 22 22 22 22 22 23 24 24 24 25 25 25 25 25 26 27 35 40 43 46 49 50 53 56 60 62 64 65
64 63 62 60 59 59 59 61 63 64 64 64 63 60 51 36 29 27 28 29 30 30 29 27 25 24 22 20 18 16 14 13 13 13 15 17 18 20 21 21 21 21 22 24 24 24 22 19 18 19 21 21 22 22 21 21 21 21 21 20 20 20 21 21 21 21 21 21 22 22 23 23 22 22 22 22 22 22 22 23 24 24 24 25 25 25 25 25 25 25 25 31 36 40 43 44 47 49 53 56 59 61 63
63 62 60 59 58 58 58 59 61 62 64 65 65 61 48 34 28 28 29 30 31 31 29 27 25 24 22 20 18 16 15 13 12 12 15 16 18 20 25 24 23 24 24 24 24 22 20 19 20 22 23 23 23 23 23 21 20 20 20 20 20 20 21 21 21 21 22 23 23 23 23 23 23 23 23 22 22 23 23 24 24 24 25 25 25 25 25 25 26 25 25 27 31 36 39 41 43 46 49 53 55 57 59
63 61 60 58 57 57 57 59 60 61 62 63 61 54 39 31 28 28 30 31 32 31 30 28 26 24 23 22 20 18 16 13 12 12 13 16 18 20 25 24 25 25 24 24 22 20 19 20 22 23 24 24 25 24 23 21 20 20 20 20 21 21 21 22 22 23 23 24 24 24 24 24 23 23 23 23 23 24 24 24 25 25 25 25 25 25 26 26 26 26 26 26 28 30 31 32 37 42 44 49 51 53 56
63 62 61 58 57 56 57 59 61 62 62 58 52 43 32 29 28 29 31 32 32 32 30 29 27 25 23 23 22 20 17 14 12 12 13 18 21 23 23 23 24 28 36 27 25 24 20 22 24 25 25 23 22 21 20 20 20 20 20 21 21 22 23 23 23 24 24 24 24 24 24 24 24 24 24 24 24 24 25 25 25 25 26 26 26 26 26 26 26 26 26 26 26 26 27 27 29 34 42 45 49 52 53
63 62 61 59 57 56 57 59 62 63 63 57 47 37 29 28 29 30 32 33 33 32 30 30 29 27 24 23 22 21 19 15 13 12 13 17 20 22 19 25 26 26 30 29 31 31 24 23 25 25 22 18 18 19 19 20 20 21 21 22 22 23 23 23 23 23 23 23 23 23 23 23 24 24 24 24 25 25 25 25 26 26 26 26 26 26 26 26 26 26 26 26 26 26 26 26 27 30 38 42 45 48 51
63 62 61 60 58 57 56 58 61 64 63 58 49 38 28 28 29 31 33 33 33 32 30 29 29 28 26 24 23 22 20 17 14 12 12 15 16 19 22 31 39 45 49 38 33 31 32 30 27 23 18 19 20 20 20 20 21 21 21 22 22 22 22 22 22 22 22 22 22 22 23 23 23 24 24 24 25 25 25 25 26 26 26 26 26 26 26 26 26 26 26 26 26 26 26 26 27 29 34 40 43 46 50
62 62 61 61 59 58 57 60 62 62 59 55 47 38 29 28 30 32 34 34 34 32 30 29 29 28 27 25 24 23 22 18 15 13 12 14 15 19 29 50 56 50 37 36 32 30 32 35 30 23 17 19 20 20 20 20 20 20 20 21 21 21 21 21 21 21 21 21 22 22 22 22 22 23 23 24 25 25 26 26 26 26 26 26 26 26 26 26 26 26 26 26 26 26 26 26 27 29 33 39 43 47 50
62 61 61 61 60 59 60 62 63 61 54 49 42 35 29 29 30 32 34 35 34 33 31 30 29 28 28 26 24 23 22 19 17 14 13 13 14 16 17 28 29 27 26 25 26 30 39 38 33 26 17 20 20 19 19 19 19 19 19 20 20 20 20 20 20 20 20 20 20 20 20 21 21 22 23 24 24 25 26 26 26 26 26 26 25 25 25 25 25 25 26 26 26 26 26 27 27 29 34 40 44 47 50
62 61 60 60 61 61 62 63 63 60 52 45 39 33 29 29 31 33 35 34 34 32 31 31 29 28 27 26 24 23 23 21 18 16 15 13 13 15 17 17 20 24 24 24 25 29 38 36 30 23 18 20 20 20 19 19 19 19 19 19 19 19 19 19 18 18 17 17 17 18 18 19 20 21 22 23 24 25 25 26 26 26 25 25 25 25 24 24 24 25 25 25 26 26 27 27 29 32 38 41 43 46 50
62 61 61 61 61 62 63 64 63 59 51 43 36 31 28 30 32 34 35 35 34 32 31 30 29 28 26 25 24 23 22 22 20 18 17 15 14 14 15 17 18 19 18 23 24 26 39 39 33 27 24 22 21 20 20 20 20 20 20 20 19 18 18 17 17 16 16 16 17 17 18 19 20 21 21 22 23 24 25 25 25 25 25 25 24 24 24 24 24 24 24 25 25 26 28 28 31 36 41 42 44 47 51
62 62 61 61 61 62 64 66 65 59 50 41 33 29 29 31 33 35 36 35 34 32 31 30 28 27 26 25 24 23 22 21 20 20 20 19 17 16 17 17 17 18 19 20 21 23 28 32 34 33 31 24 21 21 21 21 21 21 21 21 20 19 18 18 17 17 17 19 19 20 20 20 20 21 21 22 23 23 24 24 25 25 25 24 24 24 24 24 24 24 24 25 25 26 28 28 35 42 44 45 47 50 53
63 62 61 61 61 62 65 66 63 57 49 39 32 28 29 32 34 35 36 35 33 32 30 29 28 27 25 25 24 23 23 21 19 19 20 21 21 20 20 21 21 21 21 22 23 24 24 26 31 34 32 28 26 24 23 23 22 22 22 22 21 20 19 19 19 19 20 21 22 22 22 22 21 22 22 23 23 24 24 25 25 25 25 25 25 25 24 24 25 25 25 25 26 27 28 29 37 46 48 49 51 53 54
63 62 61 60 60 62 65 62 58 52 44 35 30 28 31 33 34 35 35 34 32 31 29 28 27 25 25 25 24 23 23 21 18 17 19 21 22 22 22 23 24 24 24 24 25 26 27 28 27 27 29 38 36 31 30 30 28 25 22 22 22 21 20 20 21 22 23 24 24 24 24 24 24 23 24 24 24 25 26 26 26 26 26 25 25 25 25 25 25 25 26 26 28 30 33 36 41 47 51 52 53 53 53
Wind_Speed
14 14 14 14 14 13 12 13 13 13 13 12 12 11 11 11 10 10 10 10 10 9 9 9 9 9 9 9 9 8 8 8 8 8 8 9 9 9 9 8 8 8 8 8 8 7 4 3 3 5 6 8 10 11 12 11 10 9 7 5 3 4 5 5 4 3 4 4 4 4 3 2 2 2 1 2 2 2 2 2 2 2 1 1 0 0 1 2 2 3 4 5 5 6 5 5 4 2 0 2 3 4 5
15 15 15 14 13 12 12 12 12 12 11 11 11 11 11 10 10 10 9 9 9 9 9 8 8 8 8 8 8 7 7 7 7 8 9 10 10 10 9 8 8 8 9 9 9 8 6 5 5 6 8 10 12 13 12 11 9 7 6 4 4 4 5 5 4 4 4 4 4 3 3 2 2 2 3 0 1 1 2 2 2 2 2 2 1 1 1 2 2 2 3 3 4 5 5 4 3 2 2 4 6 7 5
16 16 15 13 13 13 12 12 11 11 11 10 11 11 11 10 10 9 9 8 8 8 8 8 8 8 8 7 7 7 7 7 8 9 10 10 10 9 9 8 8 9 10 10 10 9 8 8 9 9 11 13 14 14 12 10 8 7 5 5 5 5 6 5 4 3 3 3 3 3 3 3 2 1 2 2 2 1 2 2 3 3 4 3 2 2 3 3 3 3 3 3 3 3 4 4 3 3 4 5 7 7 5
16 16 15 14 14 13 13 12 11 10 10 10 10 10 10 10 10 9 8 8 8 8 8 8 8 8 8 7 7 7 8 9 9 10 10 10 9 9 8 8 9 9 10 11 10 10 11 12 12 13 14 15 15 13 11 9 8 6 5 5 5 6 6 5 3 3 3 2 2 2 2 2 2 1 2 3 2 1 1 2 4 5 6 3 1 2 4 4 4 4 3 2 2 2 3 3 4 4 5 6 6 5 5
16 16 15 15 14 14 13 12 11 11 11 11 11 10 10 9 9 9 8 8 7 7 8 8 7 7 8 8 8 8 8 9 9 9 9 9 9 8 8 8 9 10 10 11 11 12 13 14 14 15 15 15 13 12 10 8 7 6 5 5 6 7 6 5 3 3 2 3 3 2 2 1 1 1 1 1 1 1 2 3 6 6 5 2 2 2 4 6 6 5 3 2 2 2 2 2 3 4 5 5 5 5 5
16 16 15 15 15 14 13 12 11 11 11 11 11 10 9 9 9 9 8 8 7 7 7 7 8 8 8 8 8 9 9 9 9 9 8 8 8 8 8 9 9 10 10 10 11 12 13 14 14 14 13 12 11 10 8 7 6 6 5 5 6 7 6 5 4 3 3 3 3 3 2 1 1 0 0 0 1 1 1 2 4 5 3 4 4 4 5 5 2 1 1 2 3 3 3 3 3 3 3 4 5 5 5
15 15 15 15 14 13 12 12 12 11 11 10 10 10 9 8 8 8 8 8 8 8 8 8 8 8 8 8 9 9 9 8 8 8 8 8 8 8 9 9 9 9 9 10 10 11 12 12 12 12 11 10 8 7 6 6 6 6 5 5 6 7 6 5 4 3 3 3 3 3 3 3 2 1 0 1 1 2 2 1 4 6 6 5 5 5 4 4 5 4 2 1 3 4 5 5 5 4 3 4 5 6 6
15 15 15 15 14 13 13 12 12 11 11 10 10 10 9 8 8 8 8 8 8 8 8 8 8 8 8 8 8 8 8 8 7 7 7 7 8 8 9 9 9 9 9 9 10 10 10 10 10 9 8 8 6 6 5 5 5 5 5 5 6 6 6 5 4 3 3 3 3 3 3 3 2 2 1 1 1 2 2 2 3 4 5 4 5 6 6 6 6 4 3 1 1 2 3 4 5 5 5 6 7 9 9
15 15 15 15 14 14 13 12 12 11 11 10 10 10 10 9 8 8 9 9 9 8 8 7 7 7 8 8 8 8 7 7 7 7 7 7 8 8 9 8 8 8 8 9 9 9 9 8 8 7 7 6 5 4 4 4 4 5 5 5 5 5 6 5 5 4 3 2 2 3 3 3 2 2 1 1 1 1 2 3 3 3 3 2 3 4 4 4 4 4 3 3 2 1 1 2 3 4 6 7 8 8 9
15 15 15 15 14 13 13 12 11 11 10 10 10 10 10 9 9 9 9 9 8 7 7 7 7 7 7 8 8 7 7 7 7 7 7 8 8 8 8 8 8 8 8 8 8 8 8 7 6 5 5 4 3 3 2 3 3 3 4 4 4 4 5 5 6 5 4 3 2 2 3 3 3 3 2 1 1 1 2 3 3 3 2 2 3 3 3 3 4 4 4 4 3 3 2 2 2 3 4 5 6 6 6
16 16 16 15 14 13 13 12 11 11 10 10 10 10 10 10 10 9 9 8 7 7 6 6 7 8 8 8 8 8 8 7 7 7 8 8 8 8 8 8 8 8 9 8 8 7 6 6 5 4 3 2 2 1 1 1 2 2 3 4 4 4 4 5 6 6 4 3 2 2 3 3 4 3 3 2 2 2 3 4 3 3 3 3 4 4 4 4 4 5 5 4 4 4 3 3 3 3 4 4 4 5 5
16 16 16 15 14 14 13 12 12 11 10 10 10 10 10 10 10 9 8 7 7 7 7 8 9 9 10 10 9 9 9 8 8 8 8 8 8 8 8 8 8 8 8 8 7 6 5 4 4 3 2 1 1 1 1 1 2 2 3 4 4 4 4 5 6 6 5 3 2 3 4 4 4 4 3 4 3 3 4 4 3 2 3 4 4 5 4 5 5 5 5 5 4 4 4 3 3 3 3 4 4 4 4
16 16 16 15 15 14 14 13 12 11 11 10 10 11 11 10 10 9 8 7 7 8 9 10 11 11 11 11 11 10 10 9 9 9 9 8 8 8 7 7 7 7 7 6 6 5 4 3 3 2 1 1 1 1 2 2 2 2 3 4 4 4 5 6 6 6 5 3 4 4 4 3 4 5 5 4 4 4 4 3 2 2 3 5 5 5 5 5 6 5 5 5 4 4 4 3 3 4 4 5 5 5 5
16 16 15 14 14 14 14 13 13 12 12 11 11 12 11 10 9 8 7 7 8 10 11 12 12 12 12 12 11 11 10 10 10 9 9 8 8 7 6 6 5 5 5 4 4 4 3 2 2 1 1 1 1 2 2 2 2 2 3 4 4 5 5 6 6 6 5 4 5 5 4 4 4 5 5 4 3 3 3 3 3 4 5 5 6 6 6 6 6 5 5 4 4 5 5 4 5 5 6 5 5 5 5
16 15 14 13 13 14 14 13 12 12 12 12 12 12 11 10 9 8 8 8 10 11 12 12 12 12 11 11 11 10 10 10 9 9 8 8 7 7 6 4 3 3 3 2 2 2 1 1 0 0 1 2 2 2 2 1 2 2 3 3 4 5 6 6 6 6 5 4 4 4 3 4 4 5 5 5 4 3 3 3 3 4 5 6 6 7 7 6 6 5 5 5 5 6 6 6 6 7 7 7 6 5 6
15 14 13 12 13 13 13 12 12 13 13 13 13 12 11 10 8 8 8 9 11 12 12 12 11 10 10 10 10 9 9 8 8 8 7 7 6 6 4 3 2 1 1 0 0 0 0 0 1 1 2 2 2 2 1 1 1 2 3 4 5 6 6 6 7 6 6 5 4 4 4 4 4 5 5 5 4 3 3 2 3 5 6 6 7 7 6 6 6 6 6 6 6 6 6 7 7 7 7 7 7 6 7
14 13 12 12 12 13 13 12 13 13 13 13 13 12 11 9 8 8 9 10 11 12 11 10 10 9 9 9 9 9 8 8 7 6 6 5 5 4 3 2 0 1 1 1 1 1 1 2 2 2 2 2 2 1 1 1 2 3 3 4 5 6 6 7 7 7 7 7 6 5 4 4 4 5 5 4 4 3 4 4 6 8 8 8 7 7 7 6 7 7 7 7 7 7 7 7 7 7 7 7 8 7 7
14 13 13 13 13 13 13 13 13 13 14 13 12 11 10 9 9 10 11 11 11 11 10 9 9 9 8 8 8 8 8 7 6 5 4 4 3 3 2 1 0 1 2 2 2 2 2 2 2 3 3 2 2 1 1 2 3 3 4 5 5 6 7 7 7 8 7 7 7 5 5 4 5 5 5 5 5 5 6 8 10 10 10 9 8 8 8 8 8 8 8 8 8 8 8 7 7 8 7 7 7 7 7
14 13 13 13 13 13 13 13 13 14 13 13 12 11 10 9 10 11 12 11 11 10 9 9 9 9 8 8 8 8 7 6 5 4 3 2 1 1 0 0 1 2 2 2 2 2 3 3 3 2 2 2 1 1 1 2 3 4 4 4 5 6 7 7 7 8 8 8 7 6 5 5 6 7 7 7 8 8 9 11 11 11 10 10 9 8 8 8 7 7 7 8 8 8 8 8 8 8 8 7 7 7 7
14 14 14 14 13 13 13 13 13 13 13 12 11 11 10 11 11 12 12 11 10 10 9 9 9 9 8 8 7 7 6 5 4 3 2 1 0 1 1 1 2 2 2 2 2 2 2 2 2 2 2 1 1 1 2 3 4 4 4 4 5 6 7 7 8 8 8 8 7 7 7 8 9 9 10 10 10 10 10 10 10 9 9 10 9 9 8 8 7 7 6 6 7 7 8 7 7 8 7 7 7 7 7
15 15 15 14 14 13 13 13 13 13 12 12 11 11 12 12 13 13 12 11 10 10 9 9 9 8 8 7 7 6 5 4 2 1 0 1 2 2 2 2 2 2 2 2 1 1 2 2 1 1 1 1 1 1 2 3 4 4 4 4 5 7 7 7 8 8 8 9 8 8 9 9 10 10 10 10 10 9 9 9 9 8 8 9 9 9 8 8 7 6 6 5 6 6 6 7 7 7 7 7 7 7 7
15 15 15 15 14 14 14 13 13 13 12 12 12 12 13 14 14 14 13 11 10 10 9 9 8 8 7 6 6 5 4 3 1 1 2 3 3 3 3 2 2 2 2 2 1 1 1 1 1 1 2 2 2 2 2 3 4 4 4 3 5 7 7 7 8 8 8 9 9 9 9 9 9 9 9 9 9 9 8 9 9 8 8 8 8 8 8 8 7 7 6 6 5 5 6 6 7 7 7 7 7 7 7
16 16 16 16 15 14 14 14 13 13 12 12 12 13 14 14 14 14 12 11 10 9 9 8 8 7 6 6 5 4 3 2 2 3 3 4 3 3 2 2 2 2 2 2 1 1 1 1 1 1 2 2 2 2 2 3 4 4 4 3 5 7 7 7 8 8 8 8 9 9 8 8 8 8 7 7 7 8 8 8 8 7 6 7 7 7 7 7 8 7 7 6 6 5 6 6 6 7 7 7 7 7 7
17 17 17 16 15 15 14 14 13 13 12 13 13 14 14 14 14 13 12 11 10 9 8 8 7 6 5 5 4 3 3 2 3 3 3 3 3 3 2 2 2 2 2 1 1 1 1 1 1 2 2 2 2 2 2 3 3 4 4 2 4 6 7 7 7 7 7 8 8 8 8 7 7 7 6 6 6 6 6 6 6 6 5 6 6 7 7 7 7 7 7 7 6 6 6 6 6 7 7 7 8 8 8
18 18 17 16 15 15 14 14 14 13 13 13 14 14 15 14 14 13 12 11 10 9 8 7 6 6 5 4 4 4 4 3 3 3 3 2 2 2 2 2 2 2 2 1 1 1 1 1 1 2 2 2 2 2 2 2 3 3 4 2 3 5 7 7 7 7 7 7 7 7 7 7 6 6 6 6 6 5 5 5 5 5 5 5 6 6 6 7 7 7 7 7 7 6 6 6 7 7 7 7 8 8 8
19 19 18 17 16 15 14 14 14 14 14 14 14 15 14 14 14 13 12 11 10 9 8 7 6 5 4 4 4 4 4 3 2 2 2 2 2 1 2 2 2 2 1 1 1 1 1 1 2 2 2 2 2 2 2 2 3 3 3 3 2 4 6 6 7 7 7 7 7 6 6 6 6 6 5 5 5 4 4 4 4 5 5 6 6 6 6 6 6 7 7 7 7 7 7 7 7 7 7 8 8 8 8
20 20 19 17 16 15 15 15 15 15 15 15 15 14 14 14 14 13 12 11 10 9 8 7 6 5 4 4 4 4 4 3 2 2 2 2 2 2 1 1 2 2 1 1 1 1 1 1 2 2 2 2 2 2 2 2 3 3 4 3 2 3 5 5 6 6 6 6 6 6 6 6 6 5 5 5 5 5 5 5 5 5 5 6 6 6 6 6 6 7 7 7 7 7 7 7 7 7 7 8 8 8 8
21 21 20 18 16 15 15 15 15 16 16 15 15 15 14 14 14 13 12 11 10 9 8 7 5 4 4 4 4 3 3 2 2 2 2 2 3 3 2 1 1 1 1 1 1 1 1 1 2 2 2 3 2 2 2 2 3 3 3 3 3 3 3 4 4 5 6 6 6 6 6 6 6 5 5 5 5 5 5 5 5 5 5 5 6 6 6 6 6 7 7 7 7 7 7 7 7 7 7 7 7 7 7
22 22 21 19 17 16 16 16 16 16 17 16 15 15 15 15 14 14 13 12 10 9 8 6 5 4 4 3 3 3 2 2 2 2 1 1 2 2 3 2 1 1 1 1 1 1 1 1 2 2 3 3 2 2 2 3 3 3 4 4 4 3 3 2 3 3 5 6 6 6 6 6 6 6 6 5 5 5 5 5 5 6 6 6 6 6 6 6 7 7 7 7 7 7 7 7 7 7 7 7 7 7 7
23 23 22 20 19 17 17 16 17 17 17 17 16 16 16 15 14 13 13 12 11 9 8 6 5 4 4 3 3 2 2 2 2 2 1 1 1 1 2 2 2 1 1 1 1 0 0 1 1 2 3 3 2 2 2 3 3 3 3 4 4 4 4 2 2 3 4 5 6 7 7 6 6 6 6 6 6 5 5 6 6 6 6 6 6 6 6 7 7 7 7 7 7 7 7 7 7 7 7 7 7 7 7
23 23 23 22 20 19 18 18 18 18 18 18 17 17 16 15 14 13 13 12 11 9 7 6 5 4 4 3 3 2 2 3 3 2 2 1 0 1 1 2 2 2 1 1 1 0 0 1 1 2 2 3 3 3 3 3 3 3 3 4 4 4 4 3 2 2 4 5 6 6 7 7 6 6 6 6 6 6 5 6 6 6 6 6 7 7 7 7 7 7 7 7 7 7 7 7 7 7 7 7 7 7 7
24 24 23 22 21 20 20 19 19 19 19 19 18 17 17 16 15 14 12 11 9 8 6 6 5 4 3 3 3 3 3 4 4 4 3 2 1 1 1 1 1 2 2 2 1 1 0 0 1 1 2 3 3 3 3 3 3 3 3 4 5 5 5 4 2 2 3 4 5 5 6 6 6 6 6 6 6 6 6 6 6 6 6 7 7 7 7 7 7 7 7 7 7 7 7 7 7 7 7 7 8 8 8
25 24 23 23 22 22 21 20 20 20 20 19 19 18 17 16 15 14 12 10 8 7 6 5 5 4 4 3 3 3 3 4 5 5 4 3 2 2 1 0 1 1 1 1 1 1 1 0 0 0 1 3 3 3 3 3 3 3 4 4 5 5 5 4 3 3 3 3 3 4 5 5 6 6 6 6 6 6 6 6 6 7 7 7 7 7 7 7 8 7 7 7 7 7 8 8 8 7 8 8 8 8 8
25 24 23 23 23 23 22 22 21 20 20 20 19 19 18 17 15 14 12 10 8 7 6 6 5 4 4 4 3 3 3 4 5 5 5 4 4 3 2 2 1 1 1 1 1 1 1 1 1 0 1 2 3 3 2 2 3 3 4 5 5 5 5 4 3 3 3 3 4 4 5 5 5 6 6 6 6 6 7 7 7 7 7 7 7 8 8 8 8 8 8 8 8 8 8 8 8 8 8 8 8 8 8
25 24 23 23 24 24 24 23 22 21 21 20 20 20 19 17 15 13 12 10 9 8 7 6 5 5 4 4 3 3 3 3 4 5 5 5 4 4 3 3 2 1 1 1 1 1 1 2 2 1 2 2 3 2 2 2 2 3 4 5 5 5 5 4 4 4 4 4 5 6 6 5 5 6 6 6 6 7 7 7 7 7 7 8 8 8 8 8 8 8 8 8 9 8 8 8 8 8 8 8 8 8 8
25 24 24 24 25 25 24 23 23 22 22 21 21 20 18 17 15 13 12 10 9 9 8 7 6 5 5 4 4 3 3 3 4 5 6 6 6 5 5 4 3 2 2 1 1 1 1 2 2 2 2 2 2 2 1 1 2 2 3 4 5 5 4 4 4 4 5 6 7 7 7 6 5 6 6 7 7 7 7 8 8 8 8 8 8 8 8 9 9 9 9 9 9 9 9 8 8 8 7 7 7 8 8
25 25 24 25 26 26 25 24 24 23 23 22 21 19 18 16 15 13 12 11 10 9 8 7 6 5 5 5 5 5 4 4 5 5 6 6 6 6 6 5 4 3 3 2 1 1 1 2 3 3 3 2 2 2 1 1 1 2 3 3 4 4 4 4 5 5 6 7 7 7 6 5 5 6 7 8 8 8 8 8 8 8 8 8 9 9 9 9 9 9 9 9 9 9 9 8 8 8 7 7 7 8 8
25 25 26 26 26 26 26 25 24 24 23 22 20 19 17 16 14 13 12 11 10 9 8 7 6 6 6 6 6 6 6 5 5 5 5 6 6 7 7 6 5 4 4 3 2 1 1 3 3 4 3 3 3 2 1 1 1 2 3 3 3 4 4 5 5 6 7 7 7 7 6 5 5 7 8 9 9 9 9 9 8 8 9 9 9 10 10 10 10 10 10 9 9 9 8 8 8 7 7 7 8 8 8
26 27 28 28 27 27 26 26 25 24 23 21 20 18 17 16 15 13 12 11 10 9 8 7 7 7 6 7 7 6 6 6 5 5 5 5 5 6 7 7 6 5 4 3 2 2 2 3 4 4 4 3 3 3 2 2 1 1 2 3 3 4 4 5 5 6 7 7 7 6 5 5 6 7 9 10 10 10 10 9 9 8 9 9 10 10 10 10 10 10 10 10 9 9 8 8 8 7 7 8 8 8 8
27 29 29 29 28 27 26 26 25 23 22 21 19 18 17 16 14 13 12 11 10 9 7 7 7 7 7 7 7 6 6 6 6 5 4 4 5 6 7 7 7 6 5 4 3 2 2 3 4 4 4 4 4 3 3 2 2 2 2 3 3 4 4 4 5 5 6 6 6 5 5 5 6 8 9 10 11 11 11 11 10 9 9 9 10 10 10 10 11 10 10 10 9 9 8 8 8 8 8 8 8 8 8
29 30 30 29 28 27 26 25 24 23 22 20 19 18 16 15 14 13 12 11 10 9 8 7 8 8 8 7 7 7 7 6 6 5 5 4 5 7 7 8 7 6 5 4 3 3 3 3 4 5 5 5 4 4 4 3 3 3 3 3 3 3 4 4 4 4 5 5 5 5 5 6 7 8 9 10 11 11 12 12 11 10 9 9 10 10 11 11 11 11 11 10 10 9 8 8 8 8 8 8 8 8 7
30 31 30 29 28 27 26 25 24 23 21 20 19 18 16 14 13 12 12 11 10 9 9 8 8 8 8 8 7 7 7 7 6 6 5 4 5 7 8 8 7 7 6 5 4 4 3 3 4 5 5 5 5 5 4 4 4 3 2 2 2 3 3 3 3 3 4 5 5 6 6 7 8 9 9 10 11 12 13 13 12 11 10 10 10 10 10 11 11 11 11 11 10 9 9 8 8 8 8 8 8 7 7
31 31 30 29 28 27 26 25 24 22 21 20 19 18 16 14 13 12 11 10 10 10 10 9 9 8 8 8 7 7 7 7 6 5 4 5 6 7 8 8 8 7 6 5 5 4 4 4 4 5 5 6 6 5 5 5 4 3 2 1 2 2 3 2 2 3 4 4 5 6 7 8 8 9 10 10 11 12 13 13 13 12 12 11 10 10 11 11 11 11 11 11 10 10 9 9 9 8 8 8 8 7 7
31 31 30 29 28 27 26 25 23 22 21 20 19 18 16 15 14 13 12 11 11 11 11 10 10 9 8 7 7 6 6 5 5 4 4 5 6 8 8 8 8 7 7 6 5 5 5 4 4 4 5 6 6 6 5 5 4 3 2 2 2 3 3 2 2 3 3 4 5 7 8 8 9 9 10 11 12 13 13 13 13 13 13 12 12 11 11 12 12 12 12 11 11 10 9 9 9 9 9 8 7 7 6
31 31 30 29 28 27 26 25 23 22 21 20 19 18 17 16 15 14 13 12 11 11 11 11 10 9 8 7 5 5 4 4 3 4 4 6 7 8 8 8 8 7 7 6 6 6 5 4 4 4 5 5 5 5 5 4 4 3 3 2 3 3 3 2 2 3 3 4 6 7 8 8 9 9 10 11 12 13 13 14 14 14 13 13 13 12 12 12 13 13 12 12 11 10 10 10 9 9 9 8 7 7 6
32 32 31 29 28 27 26 25 24 23 22 21 20 19 18 17 16 15 14 13 12 11 11 11 10 10 8 7 5 4 3 3 3 4 5 6 7 8 8 8 7 7 6 6 6 6 6 4 4 4 4 4 5 5 4 4 4 3 3 3 3 3 2 2 2 2 3 4 6 7 8 8 9 10 11 12 13 13 13 14 14 14 14 14 14 13 13 13 14 14 13 12 11 11 11 10 10 9 9 8 7 7 6
33 32 31 30 29 28 27 25 24 24 23 22 21 20 20 19 18 16 15 14 13 12 11 11 10 9 8 7 5 4 3 2 3 4 5 6 7 7 7 7 7 6 6 7 7 7 6 4 3 3 3 4 5 5 5 5 4 4 4 3 3 3 3 2 2 3 4 5 6 7 8 9 10 11 12 12 13 13 14 14 14 14 14 14 14 14 14 14 14 14 13 12 11 11 11 11 10 10 9 8 7 7 7
34 33 32 31 30 29 27 26 25 24 24 23 22 22 21 20 18 17 16 14 13 12 11 10 10 9 8 6 5 4 3 3 3 4 5 6 7 6 6 6 6 6 6 7 7 7 5 4 3 4 5 6 6 6 5 5 5 5 4 3 3 3 3 3 3 3 5 6 7 8 8 9 10 11 12 12 13 13 14 14 14 14 14 14 14 14 14 15 15 15 14 12 12 11 11 11 11 10 9 9 8 7 7
34 33 32 31 30 29 28 27 26 25 24 23 23 22 21 19 18 16 15 14 13 12 12 11 10 8 7 6 5 4 3 3 3 4 6 7 6 6 5 5 5 6 6 7 8 7 5 5 5 6 7 7 6 6 5 5 5 5 4 3 3 3 3 3 3 4 6 7 8 8 9 10 10 11 11 12 13 13 14 14 14 14 14 15 15 15 15 15 15 16 15 13 12 12 12 12 11 11 10 9 9 8 8
34 34 33 32 31 30 29 28 27 25 24 23 22 21 20 18 17 16 15 14 13 13 13 12 11 9 7 6 5 4 3 3 3 4 6 6 5 4 4 4 5 6 7 8 8 7 6 7 7 7 7 6 5 5 5 5 5 5 4 3 2 2 2 3 4 5 6 7 8 8 9 9 10 10 11 12 12 13 13 14 14 14 14 14 15 15 15 15 15 16 16 15 13 12 12 12 12 11 11 10 9 9 9
35 34 34 33 32 31 30 29 27 26 25 23 22 21 20 19 18 17 16 15 14 14 13 13 12 10 9 7 6 4 3 3 3 3 4 4 4 4 3 3 4 4 5 6 7 7 7 8 8 7 5 5 5 5 5 5 6 6 5 4 3 2 2 3 4 5 5 6 6 6 7 7 8 9 10 10 11 12 12 13 13 14 14 14 14 14 15 15 15 16 17 16 15 15 14 14 13 12 11 11 11 10 10
36 35 35 34 33 32 30 29 28 26 25 24 23 22 21 19 18 17 17 16 15 14 13 13 13 12 10 8 7 5 4 3 2 2 3 5 7 7 6 5 3 2 2 0 3 5 7 8 8 7 4 3 4 4 5 5 6 7 6 5 4 3 2 2 3 3 4 4 3 3 4 5 6 7 8 9 9 10 11 11 12 13 13 14 14 14 14 15 15 16 17 17 17 17 17 17 16 14 13 12 12 12 11
36 36 35 34 33 32 31 30 28 27 26 26 25 24 22 21 20 19 17 16 15 15 13 12 12 13 11 10 7 5 4 3 2 2 4 6 7 6 5 3 2 1 0 1 1 2 3 4 6 7 4 3 2 3 5 6 7 7 6 5 4 3 3 2 2 2 2 2 2 2 3 4 5 7 8 8 9 9 9 10 10 11 12 12 13 14 14 15 15 16 17 18 18 18 18 18 17 16 14 13 13 12 12
37 36 35 35 34 33 32 31 29 28 27 27 27 26 24 23 21 20 19 17 16 15 15 13 12 12 13 10 7 6 5 4 3 3 3 6 5 3 2 1 1 1 1 2 2 1 3 3 4 5 5 5 5 6 6 6 6 6 5 4 4 3 3 2 2 2 2 2 3 4 5 6 7 8 9 9 9 9 9 9 9 10 10 11 12 13 14 15 15 16 17 18 18 18 18 18 18 17 15 14 13 13 12
37 36 35 35 34 34 33 31 30 29 28 28 28 27 26 24 23 21 20 18 17 16 15 14 13 12 13 12 9 7 6 6 5 4 3 4 4 3 2 2 1 2 2 2 1 2 3 3 3 4 6 7 6 6 6 6 5 4 3 3 4 4 3 3 3 3 4 5 6 8 9 10 10 10 10 10 10 10 10 10 10 11 11 12 13 13 14 15 16 16 17 18 18 18 18 18 18 17 15 14 13 13 12
37 36 36 35 35 34 33 32 31 30 30 29 29 28 26 25 23 21 20 18 17 16 16 15 14 13 12 12 11 10 9 7 6 5 3 4 4 4 2 2 2 2 1 0 2 3 2 1 2 2 4 7 8 6 6 5 4 3 2 3 3 4 3 4 4 6 7 8 10 11 12 12 12 12 12 12 11 11 12 12 12 13 13 14 14 15 15 15 16 16 17 17 18 18 18 18 17 16 14 13 13 13 12
37 36 36 35 35 34 34 33 32 31 31 30 29 28 26 25 23 21 20 19 18 17 16 15 14 13 12 11 10 11 10 9 8 6 5 4 3 3 3 2 2 3 3 3 3 2 2 3 2 0 2 5 7 7 6 5 3 2 1 2 3 3 4 5 6 8 10 11 12 12 12 13 13 13 13 13 13 13 13 14 14 15 16 16 16 16 16 16 15 16 16 16 16 16 17 16 16 15 13 13 13 13 12
37 37 36 35 35 34 34 33 32 32 32 31 30 28 26 25 23 22 21 20 19 18 16 14 13 13 12 11 10 10 11 11 10 8 7 5 4 3 3 3 3 2 1 2 3 3 4 3 2 1 1 1 4 7 7 5 3 2 2 3 4 5 6 7 9 10 11 12 12 12 11 11 11 12 13 13 13 14 15 15 16 16 16 16 16 16 16 16 15 15 15 15 15 14 14 14 13 13 13 13 12 12 12
37 37 36 36 35 35 34 33 33 33 33 32 30 29 27 25 24 23 21 20 19 17 16 15 14 13 12 12 11 11 11 12 12 10 8 6 4 3 3 2 2 2 3 4 3 3 3 2 2 2 1 1 2 3 6 6 4 3 4 5 6 7 8 10 11 12 12 11 11 10 10 10 10 11 12 13 14 14 15 15 15 16 16 15 15 15 15 15 14 15 15 14 13 12 11 11 11 11 12 11 11 11 12
38 37 36 36 35 35 34 34 34 34 33 32 31 29 27 26 24 23 22 20 19 17 16 15 14 13 12 12 11 11 12 12 12 11 10 6 4 4 4 3 3 3 3 3 4 3 2 2 2 3 3 2 0 2 2 3 4 5 6 7 8 9 11 12 12 12 12 11 10 10 10 10 11 11 12 13 13 14 14 14 14 14 14 13 13 13 13 13 13 13 13 12 11 10 8 8 8 9 9 10 10 11 12
37 37 36 36 36 35 35 35 35 35 34 32 31 29 27 26 25 23 22 21 19 17 16 15 14 14 13 12 11 11 11 11 11 11 10 7 6 6 6 5 4 3 3 3 3 2 2 2 1 2 4 3 3 1 2 3 3 4 6 7 9 10 12 13 13 12 11 11 10 9 10 11 12 13 13 13 12 12 13 13 12 12 12 12 12 12 12 12 11 11 10 9 8 7 6 6 6 7 8 9 10 12 13
Wind_Direction
136 136 132 125 121 121 124 126 126 124 121 118 115 114 115 114 112 110 109 107 105 103 101 99 97 94 90 88 88 88 85 84 86 89 92 96 99 101 100 97 91 82 72 59 49 44 50 84 131 148 150 146 141 137 135 131 128 126 125 121 99 71 66 76 85 92 87 72 60 43 13 360 1 360 316 134 104 62 17 13 13 14 14 13 6 231 234 247 253 259 268 280 291 302 313 326 354 27 137 218 238 248 246
141 139 132 126 123 124 124 123 122 121 120 118 118 119 118 115 112 110 110 110 109 107 104 102 101 100 97 95 95 96 96 93 93 94 95 96 97 97 95 91 85 77 68 57 51 52 66 91 117 135 142 139 135 133 132 128 124 120 116 103 82 71 76 80 79 75 75 71 61 41 4 358 1 348 323 352 106 74 358 335 317 297 276 265 274 298 299 289 282 279 278 271 276 289 303 307 307 294 290 307 313 308 283
144 142 136 131 130 130 128 125 124 125 125 124 123 122 119 117 115 114 115 116 115 114 111 110 110 111 111 109 106 106 107 104 101 99 98 97 95 93 91 87 83 76 68 60 59 66 80 93 106 119 129 131 130 129 127 123 118 111 99 85 75 77 82 78 65 51 53 53 53 40 8 359 358 350 347 22 61 74 350 313 283 261 242 228 231 259 269 265 263 264 271 272 274 284 296 287 275 272 287 311 324 331 336
146 144 141 137 135 133 132 131 131 132 132 129 125 122 120 119 120 120 120 120 121 122 122 121 120 121 122 119 116 113 111 107 103 100 98 95 92 90 89 86 83 78 71 65 68 79 89 96 104 113 121 125 125 123 120 115 111 103 90 78 74 78 83 78 61 36 28 26 30 34 21 360 346 342 359 22 38 37 313 280 264 253 245 236 225 244 254 255 246 230 219 238 268 280 279 273 274 281 294 308 319 329 337
148 147 143 139 136 134 133 133 134 134 132 127 124 122 123 124 125 125 125 125 129 131 129 127 126 126 126 123 119 116 112 108 104 100 96 92 89 89 89 89 86 81 74 71 76 87 96 101 106 113 119 121 120 117 113 107 100 91 82 75 74 75 76 74 63 41 26 18 19 23 28 355 310 320 14 25 17 286 265 271 272 269 264 308 318 266 248 252 239 213 179 193 224 248 257 269 282 293 301 313 320 320 315
150 148 144 140 136 134 133 135 135 134 131 127 125 124 126 129 130 131 130 132 134 133 129 126 125 124 122 121 118 115 112 108 104 99 94 90 88 89 92 92 89 84 79 77 83 93 100 105 109 113 117 118 117 113 107 98 88 79 74 74 77 76 68 62 53 41 31 22 18 19 22 2 301 287 48 42 258 255 256 284 302 315 350 6 338 292 262 260 255 126 116 212 232 239 240 245 252 267 293 310 313 307 298
151 150 146 142 138 137 138 138 138 136 134 133 131 130 131 134 137 137 134 134 133 130 125 122 121 120 119 118 117 116 113 108 103 98 93 90 90 92 95 95 92 88 84 84 89 96 102 106 109 111 113 114 113 109 101 90 79 72 70 76 83 83 69 50 36 28 26 23 20 20 21 18 7 354 25 33 343 322 325 351 350 357 17 13 352 335 330 2 24 33 30 274 246 247 248 251 260 273 294 299 296 289 281
153 152 148 145 142 142 142 142 141 140 140 140 140 139 138 140 142 140 136 133 131 128 125 123 122 121 120 120 118 116 113 109 104 98 94 93 94 96 97 95 92 90 89 91 93 97 100 103 104 105 106 106 106 103 96 86 76 69 67 74 85 85 74 49 28 18 18 17 18 23 29 24 15 13 38 54 33 5 354 30 16 7 17 11 5 6 11 19 21 21 24 28 265 246 248 264 287 302 305 296 290 285 279
156 155 152 148 146 145 145 144 144 145 147 149 149 147 144 142 142 141 136 132 129 128 127 127 127 126 125 124 121 118 115 110 105 101 99 99 99 99 98 95 92 92 93 95 95 95 96 97 96 95 95 97 97 97 94 85 73 64 61 65 77 83 73 48 27 15 15 21 28 33 36 34 28 29 55 82 67 30 31 43 35 17 18 10 21 29 29 27 27 29 31 38 40 20 265 292 305 309 309 307 305 301 294
160 158 155 151 149 148 148 147 147 148 151 154 154 151 146 142 140 138 134 131 129 130 130 132 132 131 130 127 124 120 116 111 108 105 105 105 104 102 98 94 91 90 92 94 94 94 93 93 91 88 88 88 88 88 85 76 65 56 49 49 57 68 66 44 28 18 18 30 43 47 46 47 46 46 58 93 113 82 51 37 19 5 12 21 21 22 31 38 42 41 41 45 47 47 35 8 346 336 334 332 332 331 332
165 162 158 154 153 152 151 150 150 150 151 154 154 151 146 142 138 135 132 131 131 132 132 132 131 129 127 125 122 118 114 111 109 109 109 109 107 104 99 93 89 88 89 91 93 93 93 92 89 87 85 81 74 60 46 37 34 31 30 30 32 42 53 38 25 18 23 37 44 41 43 59 61 58 60 63 66 57 41 25 7 358 13 26 27 26 34 46 55 55 53 50 52 52 47 34 21 11 4 355 354 359 2
169 166 161 159 157 156 154 153 153 152 151 152 152 149 144 139 135 132 130 131 131 132 130 127 124 122 120 118 115 112 109 108 109 111 112 113 111 107 101 94 89 88 88 89 91 92 93 91 89 87 82 66 34 2 354 356 359 4 4 8 13 24 43 35 23 18 25 40 46 49 62 68 68 66 64 61 57 47 36 25 10 6 29 36 37 39 44 56 62 62 59 56 58 62 63 59 47 34 26 23 23 23 21
172 168 165 162 160 158 157 155 154 154 153 151 150 147 142 137 133 130 129 130 131 130 127 123 120 118 115 111 108 105 104 105 108 112 115 118 118 114 107 100 93 90 89 90 91 92 92 92 91 85 69 20 344 335 334 341 343 344 346 353 5 21 41 34 24 20 29 50 68 70 71 62 62 66 66 62 57 50 44 30 29 50 58 51 47 48 52 60 63 63 62 61 63 65 65 64 61 54 46 42 42 41 38
173 170 167 164 161 159 158 157 156 154 153 151 148 144 139 135 131 128 127 128 129 129 127 123 119 115 111 107 103 101 101 104 108 114 119 123 126 124 118 111 105 101 99 97 96 96 96 98 96 84 25 334 324 324 327 341 337 335 346 357 12 31 42 33 26 27 42 65 77 77 74 68 66 66 62 54 44 37 40 37 56 70 66 58 55 56 58 61 61 61 62 62 61 58 55 54 54 53 51 50 50 48 47
174 171 168 164 161 160 159 158 156 153 151 149 146 143 138 135 130 127 126 128 131 131 129 125 121 116 110 105 101 99 100 104 109 115 120 126 130 131 128 124 119 116 115 111 104 100 102 108 128 258 299 308 310 312 322 348 356 358 7 17 30 41 45 35 30 36 52 71 79 77 76 73 68 63 58 56 51 46 42 51 66 72 69 65 63 62 61 59 56 55 60 58 56 54 51 50 50 51 52 51 49 46 45
173 171 168 164 161 160 160 158 156 152 150 148 145 142 139 135 131 128 128 130 133 133 132 129 125 119 114 109 104 102 102 104 109 114 120 124 128 130 130 127 128 141 167 138 100 68 349 276 273 278 287 296 300 307 327 9 26 32 34 38 44 48 47 39 38 45 56 66 75 75 71 71 69 64 61 59 58 59 61 67 80 83 80 72 65 61 59 57 57 61 63 59 53 50 49 48 49 50 50 49 46 43 41
172 170 167 163 161 160 160 158 155 152 149 147 145 143 141 137 133 131 130 132 133 135 135 134 131 127 123 118 114 111 109 111 113 117 120 124 127 128 127 123 168 279 277 287 297 298 296 294 290 290 290 295 301 314 355 48 55 51 48 49 53 55 50 44 46 53 60 67 72 73 69 69 69 70 70 65 65 71 76 78 83 84 80 73 67 64 61 63 63 63 62 59 56 52 49 49 49 47 46 44 42 39 37
169 167 165 163 161 160 159 157 154 152 150 148 147 145 142 139 136 134 133 132 134 136 138 139 138 136 134 130 126 124 122 121 121 121 122 125 127 127 125 119 287 286 281 281 283 288 291 294 295 295 297 303 312 338 44 62 58 54 50 53 59 61 55 50 52 57 63 68 71 74 75 74 73 77 83 83 83 83 81 74 72 72 72 70 71 70 68 67 65 64 61 59 57 55 53 50 48 47 44 40 37 34 31
168 166 164 162 161 160 159 157 155 153 151 150 148 147 144 142 139 137 135 135 136 139 141 143 143 142 140 137 134 131 129 127 125 123 124 125 123 127 120 313 301 289 277 273 276 284 288 294 298 300 304 316 334 27 64 59 51 43 43 52 64 67 60 56 57 61 65 69 74 79 82 83 81 82 87 88 85 82 79 72 69 67 67 67 69 70 67 64 63 61 59 56 54 52 50 47 45 43 41 37 33 29 26
168 166 165 163 162 161 160 159 157 156 154 153 151 148 146 143 141 140 140 141 142 143 145 145 145 144 141 139 135 131 129 127 127 127 128 125 312 310 308 305 297 283 273 272 280 288 292 297 304 311 321 338 359 39 53 46 36 30 33 53 71 72 63 60 61 65 68 71 77 82 83 83 81 79 80 81 79 76 75 70 68 66 65 63 62 62 62 58 55 53 51 48 46 42 40 38 36 34 33 31 28 24 21
172 169 167 165 164 164 163 163 161 160 158 156 154 151 148 146 145 145 146 147 147 148 148 148 147 145 143 140 137 133 131 131 134 146 226 291 302 304 303 298 285 271 265 266 278 294 306 307 317 333 348 357 11 30 36 31 23 18 24 57 78 77 67 64 64 67 72 74 77 81 80 79 77 75 74 74 73 71 70 65 63 61 60 57 55 55 55 52 47 42 38 36 34 32 29 27 24 23 22 21 19 16 13
175 173 170 168 167 167 167 167 166 165 163 160 157 153 151 149 149 150 151 152 152 151 150 150 151 151 149 147 145 142 141 144 170 235 266 277 286 293 295 289 273 258 253 258 274 299 318 323 338 359 7 9 13 21 26 20 14 11 19 63 88 85 72 68 67 69 73 73 75 77 77 77 75 73 71 70 68 66 64 61 58 56 54 50 48 48 47 46 43 38 33 24 19 17 16 14 12 10 11 10 8 6 4
179 177 174 172 171 170 171 171 170 168 166 162 158 155 153 152 152 153 155 156 156 155 154 156 157 159 161 162 162 163 166 189 232 251 257 262 267 273 278 273 259 247 244 250 263 290 318 338 8 25 25 21 15 17 20 12 7 7 18 70 100 95 78 71 70 69 70 70 71 72 73 73 72 70 69 67 64 61 59 56 52 50 47 42 40 39 38 39 38 36 29 20 11 6 4 2 0 359 359 359 358 357 355
182 180 178 176 175 175 174 174 174 172 168 164 159 156 154 154 155 157 160 161 162 160 160 162 165 168 175 181 187 198 219 238 246 245 242 243 247 252 256 253 244 232 234 238 253 279 316 352 26 45 47 39 28 19 16 8 3 7 20 67 112 109 88 75 71 70 68 68 68 68 68 68 67 66 65 61 59 56 54 50 44 40 37 32 31 30 27 26 26 25 23 17 9 1 356 353 351 350 349 349 349 348 347
185 184 182 180 179 179 178 178 176 174 170 165 161 159 158 157 159 161 164 166 166 166 167 170 174 181 192 204 219 234 246 252 246 232 217 209 213 226 234 229 219 218 221 227 245 276 319 359 33 55 62 58 46 31 22 12 9 13 22 52 120 126 107 85 74 69 68 67 66 66 65 64 63 61 59 54 51 48 44 39 34 29 25 21 20 19 17 13 11 10 10 8 3 357 351 346 344 341 341 340 341 340 339
188 186 185 183 183 182 181 180 178 175 171 166 163 161 161 162 162 165 167 170 171 172 175 179 185 196 211 228 243 253 258 257 245 214 186 165 155 172 205 212 207 207 212 216 230 277 320 357 30 55 69 70 62 48 39 25 18 20 26 42 113 139 129 104 83 71 67 66 65 64 63 61 59 56 53 47 42 37 31 26 20 14 11 13 12 9 5 3 1 358 356 354 352 350 346 342 340 337 335 333 334 335 333
190 189 187 186 185 185 184 182 179 175 172 169 166 165 165 166 167 168 171 173 176 179 183 189 199 213 229 243 254 261 265 262 239 196 162 137 122 121 151 189 205 212 221 221 231 266 320 350 22 51 67 72 70 60 49 39 29 27 31 46 89 136 144 128 102 79 67 64 63 61 59 57 55 52 47 43 38 31 25 19 13 10 7 7 4 360 355 354 351 348 346 344 342 341 340 337 337 335 332 331 332 332 331
193 191 189 187 187 186 185 182 179 176 174 171 169 168 169 170 171 172 174 177 181 186 192 200 213 226 238 249 257 265 271 264 234 189 157 128 109 102 107 136 181 212 233 244 245 261 307 343 17 46 63 72 72 65 56 47 40 36 41 54 72 100 134 143 126 97 73 65 62 60 57 53 50 47 43 38 33 26 19 15 10 6 1 358 357 356 353 348 343 342 346 344 343 341 338 338 338 335 331 331 331 330 331
195 193 191 189 187 186 184 182 179 178 176 175 173 171 172 174 175 176 178 182 187 194 202 212 223 232 238 244 254 262 266 259 229 190 160 125 100 89 89 100 124 178 223 250 252 259 317 349 18 45 59 70 75 71 63 57 51 49 49 58 60 64 73 116 135 118 89 71 63 60 57 53 50 45 39 33 27 22 15 12 9 4 2 2 359 355 352 351 350 348 347 346 343 343 342 341 339 336 334 333 333 332 331
197 195 192 190 187 185 182 180 180 179 179 178 177 176 175 178 180 182 183 188 194 202 211 219 225 228 230 235 239 239 238 230 211 188 158 119 77 65 72 80 89 111 158 197 220 240 5 8 24 45 59 69 79 82 76 68 61 55 53 51 46 40 34 42 96 121 105 81 69 62 57 53 48 43 37 33 27 20 15 11 8 6 6 5 4 1 358 354 353 351 349 346 343 342 342 342 340 338 337 336 335 334 333
199 197 194 192 189 185 181 180 180 180 181 181 181 180 179 181 185 189 192 195 200 207 214 219 221 221 222 223 218 210 204 200 191 177 157 140 84 42 50 62 71 88 120 147 159 153 58 14 22 41 59 74 88 96 87 74 65 55 47 39 29 23 18 22 50 103 108 89 73 63 56 51 45 40 35 31 26 21 16 12 10 9 7 5 4 1 358 355 353 351 349 347 346 345 344 342 341 340 338 337 337 337 337
201 198 196 194 192 188 183 181 181 182 183 183 183 182 181 184 189 194 198 202 206 211 215 216 214 214 212 207 196 186 183 187 184 175 162 157 149 125 72 55 60 79 111 143 161 170 187 357 13 37 65 86 98 100 91 75 60 49 37 26 18 15 16 21 41 81 100 91 76 62 53 46 40 35 32 29 25 21 15 14 12 10 7 3 1 359 358 356 355 353 352 351 349 347 346 344 342 340 339 340 340 340 340
202 199 198 196 194 190 186 183 183 184 185 185 184 183 183 187 192 198 201 203 206 209 212 211 209 205 202 193 182 171 168 182 185 181 173 169 165 160 153 129 76 81 110 149 174 197 237 252 276 43 84 98 105 104 92 72 52 38 26 18 13 14 18 27 43 62 73 70 60 49 42 36 32 27 23 22 22 20 16 14 12 10 7 4 2 1 359 358 357 356 355 353 352 350 348 346 344 342 342 342 342 341 341
201 199 199 198 194 190 187 186 186 186 186 186 185 185 186 189 194 199 201 202 205 208 210 208 204 200 194 188 179 167 164 181 191 193 189 187 184 180 179 175 167 129 118 158 187 230 255 241 233 183 116 114 114 108 92 68 45 27 16 10 10 13 20 31 45 54 52 38 24 18 17 19 20 20 18 16 17 17 15 13 11 9 7 5 5 4 1 0 360 359 358 356 354 352 349 348 347 346 345 344 344 343 342
201 199 200 198 194 190 188 188 188 187 186 186 186 188 190 193 196 198 200 203 206 208 208 206 202 197 192 188 184 176 176 188 199 204 206 204 201 197 193 189 182 170 152 158 186 250 266 239 219 193 149 134 124 114 93 65 38 19 8 2 2 7 17 29 39 43 33 19 9 3 1 4 9 14 17 18 17 17 15 14 12 11 10 8 6 5 3 3 2 1 359 357 356 354 350 349 348 347 347 346 346 346 345
200 199 199 196 192 189 189 189 189 188 186 186 188 191 194 196 197 198 199 202 205 206 205 205 202 196 192 192 193 196 200 204 207 211 215 216 214 210 204 198 191 180 167 164 176 258 264 227 209 194 174 157 143 125 100 62 28 8 358 353 354 357 6 15 21 19 10 4 360 358 359 2 10 16 21 23 21 19 17 16 14 13 12 11 10 8 6 5 3 0 359 357 355 353 351 350 349 349 348 348 348 348 348
199 197 196 193 189 188 188 190 190 189 188 188 190 194 196 197 198 199 200 203 204 204 203 202 198 195 196 201 206 212 218 216 214 214 217 219 220 216 211 205 197 185 175 174 181 237 246 213 199 191 186 179 171 158 134 72 8 346 342 343 344 347 351 356 359 359 356 354 355 358 2 10 18 24 27 28 26 23 20 18 16 15 14 13 12 10 8 6 4 1 360 357 355 354 353 352 352 352 351 351 350 350 350
196 194 192 189 188 188 189 190 190 190 190 191 193 196 197 197 199 201 203 204 204 203 203 198 195 196 202 211 217 223 229 229 224 219 219 220 218 214 210 205 197 186 178 177 181 198 216 203 195 191 192 193 190 188 190 201 313 334 338 334 335 335 337 341 345 349 350 351 354 360 9 18 24 26 27 29 27 23 21 19 19 18 18 15 13 10 8 6 5 3 0 358 356 355 355 355 355 356 355 354 353 354 353
194 191 188 186 187 188 190 191 191 192 192 193 194 197 199 199 200 202 204 203 202 201 201 198 196 199 206 215 223 231 238 240 237 232 229 222 213 207 203 199 191 181 177 174 179 187 197 196 195 195 198 200 199 201 209 221 264 314 325 323 323 325 327 332 339 344 346 349 356 4 13 18 19 21 23 25 24 21 19 19 20 20 19 16 13 10 8 6 4 1 359 357 356 354 354 355 356 357 356 356 356 356 354
192 189 187 185 186 188 191 191 192 192 193 194 194 197 200 202 202 202 202 200 197 197 200 203 202 201 206 216 224 233 242 247 247 244 241 228 210 199 194 189 182 176 172 172 177 186 194 195 199 202 206 207 208 210 217 230 257 288 302 308 311 316 322 329 338 343 346 350 358 7 11 10 9 12 17 19 18 16 15 16 18 19 18 15 12 10 8 6 3 1 359 356 354 352 352 353 355 356 357 357 357 356 355
190 189 187 186 187 189 191 192 193 193 194 194 195 196 199 203 204 203 200 197 194 192 197 207 211 209 209 218 226 233 242 251 252 251 248 231 207 193 186 182 177 172 170 171 179 191 199 198 202 206 209 213 214 216 220 234 255 273 285 295 305 314 323 334 342 344 345 351 359 4 5 1 1 5 10 11 10 9 9 10 12 14 15 13 11 9 7 5 3 1 358 356 354 352 351 351 352 353 355 355 356 357 358
190 189 188 188 188 190 192 193 194 195 195 195 196 197 199 201 204 203 200 196 193 191 195 204 215 221 220 224 230 235 242 249 252 251 246 226 203 189 182 178 175 173 171 170 180 194 206 208 209 212 213 215 216 216 222 234 249 259 266 284 305 320 330 341 347 344 342 347 354 358 358 357 358 360 1 1 1 1 2 3 5 7 8 8 7 6 5 4 2 0 358 355 353 351 349 349 349 350 352 353 355 357 358
192 191 191 190 190 191 193 194 196 196 196 196 197 198 198 198 199 199 199 198 196 194 195 202 212 222 227 228 231 236 240 244 246 244 234 214 195 186 180 178 177 176 174 173 180 194 211 219 219 219 221 221 220 220 226 233 237 238 239 266 303 319 329 338 342 337 334 338 345 350 352 353 354 354 353 352 352 352 354 356 358 359 1 1 2 2 1 1 1 360 357 355 352 349 347 346 346 346 347 349 351 354 357
195 194 194 193 192 192 193 195 196 197 197 197 197 197 195 194 194 195 196 199 199 197 196 200 207 214 220 222 225 229 233 235 234 228 213 194 184 180 179 179 178 177 177 176 181 194 211 223 229 233 233 232 230 229 229 228 222 217 221 258 287 304 313 321 325 326 325 331 338 345 348 350 349 347 344 343 343 344 346 349 351 353 354 354 355 356 356 357 358 358 357 354 351 348 345 344 342 342 343 344 345 348 352
195 195 195 195 194 193 194 196 197 197 198 197 196 195 193 192 191 192 194 197 201 201 198 198 202 206 208 209 211 216 218 217 211 201 189 180 176 176 178 179 179 179 181 181 185 194 209 223 239 247 245 239 234 230 225 216 207 206 226 256 277 290 295 302 307 313 318 328 335 340 343 344 342 339 336 335 336 337 339 342 345 347 348 348 348 349 350 351 353 355 355 353 350 347 344 342 340 340 340 340 341 342 345
195 195 195 195 194 194 195 197 197 197 197 197 196 194 192 190 191 192 193 195 198 201 200 197 196 197 198 197 197 198 199 196 189 182 176 174 174 177 180 181 181 183 188 190 191 197 207 222 244 253 242 226 216 211 208 203 205 216 237 255 269 279 279 281 287 300 314 326 333 337 337 337 334 331 330 329 330 331 333 336 339 341 342 342 343 343 344 345 348 350 352 350 348 347 344 341 339 338 337 336 336 337 339
196 196 195 194 194 195 196 197 197 197 197 197 196 194 191 191 192 192 193 193 194 197 199 197 192 188 187 188 188 187 187 185 180 176 175 174 177 181 184 186 186 189 195 196 195 196 204 219 235 227 202 189 186 187 191 197 211 228 242 253 264 271 268 269 278 299 316 327 331 333 331 329 328 326 325 325 326 327 329 331 333 335 336 337 338 338 339 340 342 345 347 347 346 344 343 341 338 336 334 333 332 332 332
198 197 196 195 194 195 196 197 198 198 198 198 197 196 195 194 193 193 193 193 193 192 193 193 190 184 178 175 176 180 182 182 176 172 170 171 175 180 187 189 190 193 195 194 191 190 196 201 190 172 165 168 173 180 188 200 213 223 232 246 259 267 269 271 280 301 320 327 328 328 326 325 323 322 322 323 323 325 326 327 329 331 332 333 334 334 334 335 337 339 342 343 342 342 341 340 338 335 332 330 328 327 327
197 197 196 195 195 195 195 197 198 199 200 201 201 200 199 197 194 193 193 194 193 191 188 187 186 182 175 168 167 173 179 179 176 171 166 159 156 157 164 168 173 178 180 180 180 181 182 175 164 159 161 169 179 189 197 205 211 214 221 237 253 264 273 277 288 305 319 324 326 325 324 323 322 321 321 321 322 323 324 325 326 327 328 329 330 330 331 331 333 335 337 337 338 338 338 338 336 333 330 326 323 321 321
195 195 194 193 194 195 195 196 197 199 201 203 204 202 200 196 193 191 190 192 194 192 185 182 182 182 179 173 168 168 172 171 168 163 159 156 153 142 125 125 132 143 156 165 171 173 172 167 163 163 171 185 199 208 213 212 209 206 210 218 231 247 267 278 291 304 314 319 322 322 322 322 321 322 322 322 322 322 323 323 324 324 325 326 327 327 328 328 329 331 333 333 333 333 334 335 334 332 328 323 319 317 316
196 195 194 193 194 194 195 196 197 199 201 202 202 200 197 194 191 190 189 191 194 193 187 179 178 181 183 180 175 171 166 163 163 165 167 160 154 146 129 115 108 113 133 158 171 175 174 170 168 171 186 208 226 233 231 216 202 193 191 190 190 205 238 267 286 298 304 309 314 317 318 319 319 320 321 321 321 322 322 323 323 323 324 324 325 325 325 325 326 327 329 330 330 329 330 331 331 329 326 321 317 314 312
197 197 196 195 194 195 196 197 198 199 200 199 197 195 194 192 191 190 190 192 194 194 191 182 176 177 184 186 184 178 170 162 165 172 168 143 138 136 132 124 106 34 358 129 183 192 185 180 178 180 190 221 240 238 220 199 185 178 177 176 178 186 209 242 268 280 285 288 295 304 309 312 315 317 317 319 320 321 323 323 323 324 324 324 324 324 323 323 323 324 326 327 327 327 327 328 328 326 323 319 315 312 310
199 199 198 196 195 195 196 197 198 200 200 197 194 192 192 191 191 191 191 193 194 194 193 190 181 176 178 183 184 178 177 169 160 160 159 146 136 129 124 104 103 151 150 96 355 303 226 203 191 190 194 190 171 164 167 166 168 171 172 173 175 178 187 208 231 250 262 272 284 295 302 308 312 314 316 318 319 322 324 325 325 325 325 325 324 323 323 322 322 322 322 323 324 324 324 324 324 322 319 317 313 310 308
200 200 199 198 197 196 196 196 198 200 200 199 196 193 191 191 191 191 192 193 194 194 193 193 191 183 175 174 173 171 173 172 165 158 160 162 154 133 100 84 114 157 136 118 112 281 279 268 224 200 189 180 157 148 156 157 160 165 172 177 180 182 190 200 219 244 271 297 308 309 309 310 312 313 315 317 319 321 323 324 325 325 325 325 324 322 321 320 320 319 319 320 321 321 320 320 319 317 315 313 311 308 306
200 200 200 200 199 198 197 197 198 199 200 200 198 196 193 191 191 192 193 193 194 193 191 191 194 193 184 177 173 170 166 169 169 165 168 180 181 174 151 130 102 55 36 50 121 199 235 269 264 226 201 190 174 162 165 165 166 171 180 192 199 206 215 230 253 277 293 302 306 307 307 308 308 308 310 312 314 316 318 319 320 321 321 321 320 319 318 317 317 316 316 316 317 316 316 315 314 313 311 309 307 305 304
200 200 200 201 201 200 198 198 198 199 199 199 199 198 195 194 192 192 193 193 193 193 192 190 192 196 199 190 179 169 163 163 168 173 174 182 190 192 179 153 133 115 70 313 240 229 234 220 343 312 230 199 187 180 179 175 173 175 194 215 224 231 245 268 287 299 304 303 303 304 305 306 306 306 306 307 308 310 312 314 315 316 316 315 314 313 312 312 312 312 312 312 313 313 313 312 310 309 306 305 304 303 301
200 199 200 201 202 202 200 198 198 199 199 199 200 199 198 195 192 191 191 192 193 194 193 191 191 194 199 204 194 177 166 157 160 172 176 174 177 179 170 157 162 171 179 189 203 209 181 133 110 34 245 205 200 199 196 190 185 191 231 257 263 271 285 298 306 310 310 308 307 306 305 305 306 306 305 305 306 308 310 312 314 314 313 312 310 309 307 307 306 307 308 308 310 310 310 309 307 304 302 301 301 300 299
200 200 201 202 203 203 201 200 199 199 198 199 199 199 198 194 191 190 190 191 193 194 193 191 192 192 194 201 202 192 174 161 156 161 173 176 170 164 169 162 144 140 202 150 147 149 143 107 116 167 245 258 223 214 213 208 209 228 273 292 298 302 306 310 314 315 315 315 313 311 309 308 309 309 308 308 309 311 313 315 316 316 314 312 310 308 307 306 305 305 305 305 307 308 308 306 303 300 299 299 299 299 298
200 201 201 202 203 202 202 201 200 199 198 198 198 198 196 193 191 189 189 190 192 192 192 193 194 195 194 195 199 198 185 173 165 162 163 167 169 169 160 147 134 116 108 101 100 111 133 141 165 163 115 355 299 242 221 221 234 265 295 301 303 306 310 314 318 321 323 324 323 321 319 318 317 316 315 314 314 315 318 321 322 321 318 315 314 312 311 310 309 308 307 305 305 306 307 305 302 299 300 300 300 300 299
200 200 201 201 202 202 201 201 200 199 198 198 197 197 195 192 190 189 188 189 190 191 193 195 197 199 200 199 201 201 194 184 178 174 167 159 161 169 166 145 128 116 104 99 98 96 98 136 159 153 131 143 226 307 289 242 247 276 297 301 303 306 310 315 320 324 328 331 332 330 328 327 326 324 322 320 321 323 327 330 330 328 325 323 322 321 320 318 316 313 310 307 307 309 312 312 308 306 307 307 306 304 304
199 200 200 200 200 200 200 200 199 198 197 196 196 195 195 193 190 188 187 187 188 190 193 196 200 204 207 207 207 206 203 193 187 185 183 175 165 165 171 167 159 149 140 124 108 97 89 85 133 164 157 144 135 146 299 298 291 287 287 291 297 305 310 315 320 325 330 333 334 333 331 330 329 328 327 326 330 335 339 340 338 336 334 333 332 331 329 326 323 319 316 314 317 325 334 332 325 319 318 316 314 311 308